EW0663 Weather Reports


time (UTC)temp
F
wind
direction
speed
knots
gust
knots
rain 1hr
in
rain 24hr
in
rain mn
in
humidity
%
barometer
mb
20260507155458 62 202 2.6 12.2 0.00 0.00 0.00 55 1015.6
20260507154437 62 242 2.6 13.0 0.00 0.00 0.00 55 1015.8
20260507153449 61 213 1.7 13.0 0.00 0.00 0.00 56 1015.9
20260507150207 60 307 2.6 10.4 0.00 0.00 0.00 59 1016.3
20260507144056 59 5 0.9 8.7 0.00 0.00 0.00 61 1016.3
20260507143049 58 38 0.9 7.0 0.00 0.00 0.00 63 1016.3
20260507142106 58 254 0.9 6.1 0.00 0.00 0.00 63 1016.2
20260507141100 57 203 0.9 6.1 0.00 0.00 0.00 64 1016.4
20260507140042 56 196 0.9 6.1 0.00 0.00 0.00 67 1016.5
20260507133833 54 257 0.0 4.3 0.00 0.00 0.00 71 1016.5
20260507132820 52 312 0.0 4.3 0.00 0.00 0.00 73 1016.5
20260507131822 51 224 0.0 2.6 0.00 0.00 0.00 75 1016.5
20260507130809 50 284 0.0 2.6 0.00 0.00 0.00 77 1016.8
20260507124624 48 212 0.0 1.7 0.00 0.00 0.00 80 1016.8
20260507122500 46 198 0.0 0.0 0.00 0.00 0.00 80 1016.9
20260507121453 46 197 0.0 0.0 0.00 0.00 0.00 81 1016.9
20260507120442 45 197 0.0 0.0 0.00 0.00 0.00 81 1016.9
20260507115443 45 197 0.0 0.9 0.00 0.00 0.00 81 1016.8
20260507114504 45 250 0.0 0.0 0.00 0.00 0.00 80 1016.8
20260507111303 45 250 0.0 0.0 0.00 0.00 0.00 77 1016.6
20260507105141 45 250 0.0 0.0 0.00 0.00 0.00 76 1016.6
20260507101819 45 248 0.0 0.0 0.00 0.01 0.00 72 1016.6
20260507100816 45 248 0.0 0.0 0.00 0.01 0.00 72 1016.7
20260507095839 45 248 0.0 0.0 0.00 0.01 0.00 72 1016.7
20260507094809 45 248 0.0 0.0 0.00 0.01 0.00 73 1016.8
20260507093756 45 247 0.0 0.0 0.00 0.01 0.00 74 1016.8
20260507092816 45 247 0.0 0.0 0.00 0.01 0.00 74 1016.9
20260507091802 45 247 0.0 0.0 0.00 0.01 0.00 72 1016.9
20260507085637 46 247 0.0 0.0 0.00 0.01 0.00 71 1016.9
20260507084636 46 247 0.0 0.0 0.00 0.01 0.00 71 1016.9
20260507083640 46 247 0.0 0.0 0.00 0.01 0.00 71 1016.9
20260507081447 46 247 0.0 0.0 0.00 0.01 0.00 71 1017.0
20260507080446 46 338 0.0 0.0 0.00 0.01 0.00 71 1016.9
20260507075446 46 338 0.0 0.0 0.00 0.01 0.00 71 1016.9
20260507073308 47 338 0.0 0.0 0.00 0.01 0.00 68 1017.0
20260507072310 47 338 0.0 0.0 0.00 0.01 0.00 68 1017.1
20260507070131 48 338 0.0 0.0 0.00 0.01 0.00 69 1017.4
20260507065152 48 338 0.0 0.0 0.00 0.01 0.00 69 1017.5
20260507063100 48 338 0.0 0.0 0.00 0.01 0.00 69 1017.7
20260507062100 48 341 0.0 0.0 0.00 0.01 0.00 69 1017.6
20260507061055 48 341 0.0 0.0 0.00 0.01 0.00 68 1017.6
20260507060034 48 341 0.0 0.0 0.00 0.01 0.00 69 1017.6
20260507053825 48 342 0.0 0.0 0.00 0.01 0.00 67 1017.8
20260507052806 48 342 0.0 0.0 0.00 0.01 0.00 65 1017.8
20260507051752 49 342 0.0 0.0 0.00 0.01 0.00 62 1017.8
20260507050742 49 342 0.0 0.0 0.00 0.01 0.00 60 1017.7
20260507045749 50 342 0.0 0.0 0.00 0.01 0.01 59 1017.8
20260507044755 50 342 0.0 0.0 0.00 0.01 0.01 56 1017.8
20260507043736 50 342 0.0 0.0 0.00 0.01 0.01 54 1017.7
20260507041522 51 342 0.0 0.0 0.00 0.01 0.01 52 1017.7
20260507040453 51 342 0.0 0.0 0.00 0.01 0.01 52 1017.9
20260507034420 51 342 0.0 0.0 0.00 0.01 0.01 49 1018.0
20260507032330 52 342 0.0 0.0 0.00 0.01 0.01 49 1017.8
20260507031335 51 342 0.0 0.0 0.00 0.01 0.01 47 1017.8
20260507030340 52 342 0.0 0.0 0.00 0.01 0.01 45 1017.8
20260507025318 52 342 0.0 0.0 0.00 0.01 0.01 45 1017.8
20260507024254 52 342 0.0 0.0 0.00 0.01 0.01 45 1017.7
20260507022207 53 342 0.0 0.0 0.00 0.01 0.01 45 1017.5
20260507021134 53 342 0.0 0.0 0.00 0.01 0.01 47 1017.5
20260507020150 53 342 0.0 0.0 0.00 0.01 0.01 48 1017.4
20260507015126 53 342 0.0 0.0 0.00 0.01 0.01 45 1017.3
20260507014123 54 342 0.0 0.0 0.00 0.01 0.01 45 1017.3
20260507013103 54 342 0.0 0.0 0.00 0.01 0.01 45 1017.3
20260507012056 55 342 0.0 0.0 0.00 0.01 0.01 42 1017.0
20260507011030 56 342 0.0 0.0 0.00 0.01 0.01 40 1016.9
20260507004827 58 342 0.0 0.0 0.00 0.01 0.01 38 1016.9
20260507002626 59 304 0.9 3.5 0.00 0.01 0.01 35 1016.8
20260507001615 60 323 0.0 3.5 0.00 0.01 0.01 35 1016.8
20260507000556 60 306 0.0 0.9 0.00 0.01 0.01 35 1016.8
20260506235550 60 307 0.0 0.0 0.00 0.01 0.01 35 1016.9
20260506234542 60 302 0.0 2.6 0.00 0.01 0.01 33 1016.9
20260506233603 60 321 0.9 6.1 0.00 0.01 0.01 34 1016.9
20260506232600 61 316 0.9 4.3 0.00 0.01 0.01 33 1016.8
20260506231615 61 284 1.7 5.2 0.00 0.01 0.01 33 1016.8
20260506230636 61 309 0.9 5.2 0.00 0.01 0.01 32 1016.8
20260506225604 61 328 0.9 3.5 0.00 0.01 0.01 34 1016.8
20260506224534 62 344 0.9 4.3 0.00 0.01 0.01 32 1016.9
20260506223540 62 40 0.9 4.3 0.00 0.01 0.01 32 1016.8
20260506222548 62 136 0.0 2.6 0.00 0.01 0.01 33 1016.8
20260506221557 62 9 0.9 1.7 0.00 0.01 0.01 32 1017.0
20260506220601 63 118 0.9 6.1 0.00 0.01 0.01 32 1017.0
20260506215527 62 276 0.9 6.1 0.00 0.01 0.01 34 1017.1
20260506213406 62 111 1.7 8.7 0.00 0.01 0.01 33 1017.3
20260506212405 63 307 0.9 6.1 0.00 0.01 0.01 35 1017.2
20260506210212 62 0 0.9 7.0 0.00 0.01 0.01 34 1017.7
20260506205204 62 0 0.9 7.0 0.00 0.01 0.01 33 1017.9
20260506204142 62 297 0.9 6.1 0.00 0.01 0.01 35 1017.9
20260506202009 61 94 0.9 7.0 0.00 0.01 0.01 34 1018.1
20260506201031 60 332 1.7 7.0 0.00 0.01 0.01 34 1018.3
20260506200039 62 284 0.9 6.1 0.00 0.01 0.01 34 1018.5
20260506195101 61 235 0.0 2.6 0.00 0.01 0.01 35 1018.5
20260506194050 60 306 0.9 6.1 0.00 0.01 0.01 34 1018.7
20260506193036 60 57 0.9 6.1 0.00 0.01 0.01 35 1018.6
20260506190923 60 343 0.9 4.3 0.00 0.01 0.01 38 1018.7
20260506185924 59 46 0.9 4.3 0.00 0.01 0.01 34 1018.8
20260506184916 59 142 0.9 6.1 0.00 0.01 0.01 36 1019.0
20260506183934 58 313 1.7 7.0 0.00 0.01 0.01 37 1019.1
20260506182906 57 285 0.9 7.0 0.00 0.02 0.01 39 1019.0
20260506181901 57 304 1.7 6.1 0.00 0.02 0.01 39 1019.3
20260506180841 57 323 0.9 4.3 0.00 0.02 0.01 38 1019.1
20260506174715 56 275 1.7 7.8 0.00 0.02 0.01 38 1019.3
20260506172602 57 17 1.7 7.0 0.00 0.02 0.01 38 1019.4
20260506171559 57 9 0.9 3.5 0.00 0.03 0.01 38 1019.2
20260506170603 57 296 1.7 6.1 0.00 0.03 0.01 39 1019.4
20260506164409 56 321 0.9 6.1 0.00 0.03 0.01 37 1019.4
20260506163432 56 107 0.9 4.3 0.00 0.05 0.01 41 1019.3
20260506161312 55 96 1.7 6.1 0.00 0.05 0.01 40 1019.1
20260506160318 56 336 0.9 7.8 0.00 0.07 0.01 41 1019.2